Time,TemperatureF,DewpointF,PressureIn,WindDirection,WindDirectionDegrees,WindSpeedMPH,WindSpeedGustMPH,Humidity,HourlyPrecipIn,Conditions,Clouds,dailyrainin,SoftwareType,DateUTC
2013-02-16 00:14:00,43.9,36.5,30.07,ENE,68,0.0,0.0,75,0.00, ,SKC,-99.99,VWS V12.07,2013-02-15 22:14:00,
2013-02-16 00:19:00,43.7,36.3,30.07,ENE,68,0.0,0.0,75,0.00, ,SKC,-99.99,VWS V12.07,2013-02-15 22:19:00,
2013-02-16 00:24:00,43.7,36.3,30.07,ENE,68,0.0,0.0,75,0.00, ,SKC,-99.99,VWS V12.07,2013-02-15 22:24:00,
2013-02-16 00:29:00,43.7,36.3,30.07,ENE,68,0.0,0.0,75,0.00, ,SKC,-99.99,VWS V12.07,2013-02-15 22:29:00,
2013-02-16 00:34:00,43.7,36.6,30.07,ENE,68,0.0,2.2,76,0.00, ,SKC,-99.99,VWS V12.07,2013-02-15 22:34:00,
2013-02-16 00:39:00,43.9,36.8,30.07,ENE,68,0.0,2.2,76,0.00, ,SKC,-99.99,VWS V12.07,2013-02-15 22:39:00,
2013-02-16 00:44:00,43.7,36.6,30.07,ENE,68,0.0,0.0,76,0.00, ,SKC,-99.99,VWS V12.07,2013-02-15 22:44:00,
2013-02-16 00:49:00,43.9,36.8,30.07,ENE,68,0.0,0.0,76,0.00, ,SKC,-99.99,VWS V12.07,2013-02-15 22:49:00,
2013-02-16 00:54:00,43.9,36.8,30.07,ENE,68,0.0,0.0,76,0.00, ,SKC,-99.99,VWS V12.07,2013-02-15 22:54:00,
2013-02-16 00:59:00,43.9,37.2,30.07,ENE,68,0.0,0.0,77,0.00, ,SKC,-99.99,VWS V12.07,2013-02-15 22:59:00,
2013-02-16 01:04:00,43.9,37.2,30.07,ENE,68,0.0,0.0,77,0.00, ,SKC,-99.99,VWS V12.07,2013-02-15 23:04:00,
2013-02-16 15:15:00,54.3,27.3,30.04,NE,34,10.1,10.1,35,0.00, ,SKC,-99.99,VWS V12.07,2013-02-16 13:15:00,
2013-02-16 15:16:00,54.3,28.0,30.04,ENE,78,4.0,10.1,36,0.00, ,SKC,-99.99,VWS V12.07,2013-02-16 13:16:00,
2013-02-16 15:17:00,54.3,28.0,30.04,South,179,4.5,10.1,36,0.00, ,SKC,-99.99,VWS V12.07,2013-02-16 13:17:00,
2013-02-16 16:05:00,53.2,27.7,30.04,NE,43,6.3,10.1,37,0.00, ,SKC,-99.99,VWS V12.07,2013-02-16 14:05:00,
2013-02-16 16:10:00,52.7,27.8,30.04,ENE,75,2.7,10.1,38,0.00, ,SKC,-99.99,VWS V12.07,2013-02-16 14:10:00,
2013-02-16 17:46:00,51.1,30.0,30.07,East,86,3.6,4.0,44,0.00, ,SKC,-99.99,VWS V12.07,2013-02-16 15:46:00,
2013-02-16 17:51:00,50.9,29.8,30.07,South,178,3.6,6.3,44,0.00, ,SKC,-99.99,VWS V12.07,2013-02-16 15:51:00,
2013-02-16 17:56:00,50.7,30.2,30.07,ENE,76,5.4,6.3,45,0.00, ,SKC,-99.99,VWS V12.07,2013-02-16 15:56:00,
2013-02-16 18:02:00,50.5,30.5,30.07,East,83,4.0,4.0,46,0.00, ,SKC,-99.99,VWS V12.07,2013-02-16 16:02:00,
2013-02-16 18:07:00,50.5,30.5,30.07,ESE,106,6.3,6.3,46,0.00, ,SKC,-99.99,VWS V12.07,2013-02-16 16:07:00,
2013-02-16 18:12:00,50.4,30.9,30.07,East,87,3.6,7.6,47,0.00, ,SKC,-99.99,VWS V12.07,2013-02-16 16:12:00,
2013-02-16 18:18:00,50.4,30.9,30.07,ESE,116,5.4,7.6,47,0.00, ,SKC,-99.99,VWS V12.07,2013-02-16 16:18:00,
2013-02-16 18:23:00,50.4,30.9,30.07,NE,41,3.1,4.0,47,0.00, ,SKC,-99.99,VWS V12.07,2013-02-16 16:23:00,
2013-02-16 18:28:00,50.4,30.9,30.07,East,96,0.0,5.4,47,0.00, ,SKC,-99.99,VWS V12.07,2013-02-16 16:28:00,
2013-02-16 18:33:00,50.4,30.9,30.07,East,96,0.0,5.4,47,0.00, ,SKC,-99.99,VWS V12.07,2013-02-16 16:33:00,
2013-02-16 18:38:00,50.4,31.4,30.07,East,87,3.1,5.4,48,0.00, ,SKC,-99.99,VWS V12.07,2013-02-16 16:38:00,
2013-02-16 18:43:00,50.0,30.6,30.07,East,95,0.0,3.6,47,0.00, ,SKC,-99.99,VWS V12.07,2013-02-16 16:43:00,
2013-02-16 18:48:00,48.9,31.6,30.07,East,87,2.7,3.6,51,0.00, ,SKC,-99.99,VWS V12.07,2013-02-16 16:48:00,
2013-02-16 18:53:00,48.6,31.8,30.07,ENE,78,2.7,4.9,52,0.04, ,SKC,-99.99,VWS V12.07,2013-02-16 16:53:00,
2013-02-16 18:58:00,48.4,33.0,30.07,East,79,3.1,4.9,55,0.04, ,SKC,-99.99,VWS V12.07,2013-02-16 16:58:00,
2013-02-16 19:03:00,48.4,34.3,30.07,East,93,3.1,3.1,58,0.04, ,SKC,-99.99,VWS V12.07,2013-02-16 17:03:00,
2013-02-16 19:08:00,48.4,35.2,30.07,ENE,78,0.0,4.0,60,0.04, ,SKC,-99.99,VWS V12.07,2013-02-16 17:08:00,
2013-02-16 19:13:00,48.6,36.2,30.07,ENE,78,0.0,4.0,62,0.04, ,SKC,-99.99,VWS V12.07,2013-02-16 17:13:00,
2013-02-16 19:18:00,48.4,36.4,30.07,East,83,0.0,4.0,63,0.04, ,SKC,-99.99,VWS V12.07,2013-02-16 17:18:00,
2013-02-16 19:23:00,48.2,37.0,30.07,East,89,2.7,2.7,65,0.04, ,SKC,-99.99,VWS V12.07,2013-02-16 17:23:00,
2013-02-16 19:28:00,48.4,37.6,30.07,East,89,0.0,2.7,66,0.04, ,SKC,-99.99,VWS V12.07,2013-02-16 17:28:00,
2013-02-16 19:33:00,48.6,38.1,30.07,East,89,0.0,2.7,67,0.08, ,SKC,-99.99,VWS V12.07,2013-02-16 17:33:00,
2013-02-16 19:38:00,48.7,38.7,30.07,SSW,208,2.2,3.1,68,0.08, ,SKC,-99.99,VWS V12.07,2013-02-16 17:38:00,
2013-02-16 19:43:00,48.4,38.3,30.07,SSW,208,0.0,0.0,68,0.12, ,SKC,-99.99,VWS V12.07,2013-02-16 17:43:00,
2013-02-16 19:48:00,48.4,38.7,30.07,SSW,208,0.0,0.0,69,0.12, ,SKC,-99.99,VWS V12.07,2013-02-16 17:48:00,
2013-02-16 19:53:00,48.4,38.7,30.07,SSW,208,0.0,2.7,69,0.12, ,SKC,-99.99,VWS V12.07,2013-02-16 17:53:00,
2013-02-16 19:58:00,48.2,38.5,30.07,NNE,23,2.2,3.1,69,0.12, ,SKC,-99.99,VWS V12.07,2013-02-16 17:58:00,
2013-02-16 20:03:00,48.2,38.5,30.07,NNE,23,0.0,2.7,69,0.08, ,SKC,-99.99,VWS V12.07,2013-02-16 18:03:00,
2013-02-16 20:08:00,48.0,38.7,30.07,NNE,23,0.0,3.6,70,0.08, ,SKC,-99.99,VWS V12.07,2013-02-16 18:08:00,
2013-02-16 20:13:00,48.2,39.2,30.07,NNE,23,0.0,3.6,71,0.08, ,SKC,-99.99,VWS V12.07,2013-02-16 18:13:00,
2013-02-16 20:18:00,48.2,39.2,30.07,NNE,30,0.0,3.6,71,0.16, ,SKC,-99.99,VWS V12.07,2013-02-16 18:18:00,
2013-02-16 20:23:00,47.3,38.0,30.07,NW,319,2.7,4.0,70,0.24, ,SKC,-99.99,VWS V12.07,2013-02-16 18:23:00,
2013-02-16 20:28:00,47.1,40.3,30.07,NW,321,0.0,4.0,77,0.24, ,SKC,-99.99,VWS V12.07,2013-02-16 18:28:00,
2013-02-16 20:33:00,46.9,41.1,30.07,NW,321,0.0,4.0,80,0.28, ,SKC,-99.99,VWS V12.07,2013-02-16 18:33:00,
2013-02-16 20:38:00,46.4,40.6,30.07,NE,39,2.2,4.0,80,0.28, ,SKC,-99.99,VWS V12.07,2013-02-16 18:38:00,
2013-02-16 20:43:00,46.2,41.0,30.07,NE,37,3.6,5.8,82,0.20, ,SKC,-99.99,VWS V12.07,2013-02-16 18:43:00,
2013-02-16 20:48:00,46.0,41.5,30.07,NE,36,0.0,5.8,84,0.20, ,SKC,-99.99,VWS V12.07,2013-02-16 18:48:00,
2013-02-16 20:53:00,46.2,42.3,30.07,NE,36,0.0,5.8,86,0.20, ,SKC,-99.99,VWS V12.07,2013-02-16 18:53:00,
2013-02-16 20:58:00,46.8,42.5,30.07,NE,36,0.0,5.8,85,0.20, ,SKC,-99.99,VWS V12.07,2013-02-16 18:58:00,
2013-02-16 21:04:00,46.8,42.2,30.07,NNE,23,0.0,4.9,84,0.20, ,SKC,-99.99,VWS V12.07,2013-02-16 19:04:00,
2013-02-16 21:09:00,46.9,42.4,30.07,NNE,29,0.0,4.9,84,0.20, ,SKC,-99.99,VWS V12.07,2013-02-16 19:09:00,
2013-02-16 21:14:00,46.8,42.2,30.07,East,86,2.7,4.9,84,0.20, ,SKC,-99.99,VWS V12.07,2013-02-16 19:14:00,
2013-02-16 21:19:00,46.6,42.0,30.07,East,79,2.7,4.9,84,0.20, ,SKC,-99.99,VWS V12.07,2013-02-16 19:19:00,
2013-02-16 21:24:00,46.8,42.5,30.07,ENE,75,2.7,4.0,85,0.08, ,SKC,-99.99,VWS V12.07,2013-02-16 19:24:00,
2013-02-16 21:29:00,46.8,42.5,30.07,North,5,3.6,4.0,85,0.08, ,SKC,-99.99,VWS V12.07,2013-02-16 19:29:00,
2013-02-16 21:35:00,46.8,42.5,30.07,East,79,2.7,4.0,85,0.08, ,SKC,-99.99,VWS V12.07,2013-02-16 19:35:00,
2013-02-16 21:40:00,46.8,42.5,30.07,East,79,0.0,4.0,85,0.08, ,SKC,-99.99,VWS V12.07,2013-02-16 19:40:00,
2013-02-16 21:45:00,46.8,42.5,30.07,NNE,18,0.0,4.0,85,0.00, ,SKC,-99.99,VWS V12.07,2013-02-16 19:45:00,
2013-02-16 21:50:00,46.6,42.3,30.07,NE,35,2.7,5.4,85,0.00, ,SKC,-99.99,VWS V12.07,2013-02-16 19:50:00,